Location: Dittelbrunn
(50.0738°N, 10.2196°E)
Time: 04:01:14
(UTC+00:00)

Cosmos 1300 Rocket - Pass Details

Date: 18 September 2020
Orbit: 602 x 626 km, 82.5° (Epoch: 19 October)

Event Time Altitude Azimuth Distance (km) Brightness Sun altitude
Rises 18:17:09 0° 163° (SSE) 2,878 6.7 -9.1°
Reaches altitude 10° 18:19:30 10° 154° (SSE) 1,982 5.8 -9.4°
Maximum altitude 18:23:27 33° 90° (E) 1,047 4.2 -10.0°
Drops below altitude 10° 18:27:26 10° 27° (NNE) 2,008 6.1 -10.7°
Sets 18:29:50 0° 18° (NNE) 2,923 7.0 -11.0°
